Port Angeles, WA

11:52 AM PDT on September 21, 2017 (GMT -0700)
Fairchild International

Weather History for KCLM - May, 2013

Change the Weather History Date:

Monday, May 27, 2013

  Actual Average Record
Temperature  
Mean Temperature 50 °F -  
Max Temperature 57 °F 60 °F 82 °F (2005)
Min Temperature 46 °F 46 °F 39 °F (1955)
Degree Days  
Heating Degree Days 14    
Moisture  
Dew Point 49 °F    
Average Humidity 94    
Maximum Humidity 100    
Minimum Humidity 84    
Precipitation  
Precipitation 0.03 in - - ()
Sea Level Pressure  
Sea Level Pressure 29.77 in    
Wind  
Wind Speed 2 mph (NW)    
Max Wind Speed 7 mph    
Max Gust Speed -    
Visibility 6 miles    
Events Fog , Rain    
Averages and records for this station are not official NWS values.
T = Trace of Precipitation, MM = Missing Value Source: NWS Daily Summary

Daily Weather History Graph

Daily Weather History Graph

Search for Another Location

Airport or City:

Trip Planner

Search our weather history database for the weather conditions in past years. The results will help you decide how hot, cold, wet, or windy it might be!

Date:

Astronomy

May. 27, 2013 Rise Set
Actual Time 5:21 AM PDT 9:01 PM PDT
Civil Twilight 4:42 AM PDT 9:40 PM PDT
Nautical Twilight 3:49 AM PDT 10:34 PM PDT
Astronomical Twilight 2:35 AM PDT 11:49 PM PDT
Moon 11:38 PM PDT (5/27) 8:09 AM PDT (5/27)
Length of Visible Light 16h 58m
Length of Day
15h 39m
Waning Gibbous, 90% of the Moon is Illuminated
May 27
Waning Gibbous
May 31
Last Quarter
Jun 8
New
Jun 16
First Quarter
Jun 23
Full

Hourly Weather History & Observations

Time (PDT) Temp. Dew Point Humidity Pressure Visibility Wind Dir Wind Speed Gust Speed Precip Events Conditions
12:09 AM 50.0 °F 48.9 °F 96% 29.93 in 1.5 mi Calm Calm - N/A   Mostly Cloudy
12:22 AM 50.0 °F 48.9 °F 96% 29.93 in 0.8 mi Calm Calm - N/A   Mist
12:29 AM 48.9 °F 48.0 °F 97% 29.93 in 1.5 mi SE 3.5 mph - N/A   Partly Cloudy
12:34 AM 48.0 °F 46.9 °F 96% 29.93 in 0.8 mi East 3.5 mph - N/A   Mist
12:40 AM 48.9 °F 46.9 °F 93% 29.93 in 1.0 mi Calm Calm - N/A   Mist
12:53 AM 46.9 °F 46.9 °F 100% 29.93 in 0.5 mi Calm Calm - N/A Fog Fog
1:00 AM 48.0 °F 46.9 °F 96% 29.92 in 0.2 mi Calm Calm - N/A Fog Fog
1:53 AM 46.9 °F 46.0 °F 97% 29.92 in 0.2 mi WSW 3.5 mph - N/A Fog Fog
2:13 AM 46.0 °F 45.0 °F 96% 29.91 in 0.8 mi Calm Calm - N/A   Mostly Cloudy
2:20 AM 46.9 °F 46.0 °F 97% 29.91 in 1.2 mi Calm Calm - N/A   Mostly Cloudy
2:34 AM 46.9 °F 46.0 °F 97% 29.90 in 4.0 mi Calm Calm - N/A   Mostly Cloudy
2:53 AM 46.9 °F 46.0 °F 97% 29.90 in 8.0 mi Calm Calm - N/A   Overcast
3:12 AM 48.0 °F 46.9 °F 96% 29.89 in 10.0 mi Calm Calm - N/A   Overcast
3:53 AM 48.0 °F 48.0 °F 100% 29.87 in 10.0 mi Calm Calm - N/A   Overcast
4:15 AM 48.9 °F 48.0 °F 97% 29.85 in 10.0 mi Calm Calm - N/A   Overcast
4:23 AM 48.9 °F 48.0 °F 97% 29.85 in 10.0 mi Calm Calm - N/A   Overcast
4:35 AM 48.9 °F 48.0 °F 97% 29.85 in 10.0 mi Calm Calm - N/A   Overcast
4:53 AM 48.9 °F 48.0 °F 97% 29.84 in 10.0 mi Calm Calm - N/A   Overcast
5:18 AM 50.0 °F 48.0 °F 93% 29.83 in 9.0 mi Calm Calm - N/A   Overcast
5:36 AM 50.0 °F 48.0 °F 93% 29.82 in 10.0 mi Calm Calm - N/A   Overcast
5:45 AM 50.0 °F 48.9 °F 96% 29.81 in 9.0 mi Calm Calm - N/A   Overcast
5:53 AM 50.0 °F 48.0 °F 93% 29.82 in 8.0 mi Calm Calm - N/A   Overcast
6:53 AM 50.0 °F 48.9 °F 96% 29.78 in 10.0 mi Calm Calm - 0.00 in Rain Light Rain
7:16 AM 51.1 °F 48.9 °F 92% 29.77 in 10.0 mi Calm Calm - 0.01 in Rain Light Rain
7:22 AM 50.0 °F 48.9 °F 96% 29.77 in 1.0 mi North 4.6 mph - 0.01 in Rain Light Rain
7:24 AM 50.0 °F 48.0 °F 93% 29.76 in 0.2 mi North 4.6 mph - 0.01 in Fog , Rain Light Rain
7:31 AM 48.9 °F 48.0 °F 97% 29.76 in 0.2 mi North 3.5 mph - 0.01 in Fog , Rain Light Rain
7:51 AM 48.2 °F 48.2 °F 100% 29.76 in 0.2 mi Calm Calm - 0.02 in Fog , Rain Light Rain
7:53 AM 48.9 °F 48.0 °F 97% 29.76 in 0.2 mi Calm Calm - 0.02 in Fog Fog
8:37 AM 50.0 °F 48.0 °F 93% 29.74 in 0.2 mi Calm Calm - N/A Fog Fog
8:53 AM 50.0 °F 48.0 °F 93% 29.73 in 0.2 mi East 3.5 mph - N/A Fog Fog
9:04 AM 50.0 °F 48.9 °F 96% 29.72 in 1.2 mi Calm Calm - N/A   Overcast
9:09 AM 50.0 °F 48.9 °F 96% 29.72 in 0.2 mi East 4.6 mph - N/A Fog Fog
9:50 AM 50.0 °F 50.0 °F 100% 29.70 in 1.0 mi Calm Calm - N/A   Mist
9:53 AM 50.0 °F 50.0 °F 100% 29.70 in 1.8 mi Calm Calm - N/A   Overcast
9:59 AM 51.1 °F 50.0 °F 96% 29.70 in 3.0 mi Calm Calm - N/A   Overcast
10:39 AM 52.0 °F 50.0 °F 93% 29.68 in 10.0 mi Calm Calm - N/A   Mostly Cloudy
10:53 AM 53.1 °F 51.1 °F 93% 29.68 in 10.0 mi Variable 3.5 mph - N/A   Mostly Cloudy
11:15 AM 53.1 °F 51.1 °F 93% 29.67 in 10.0 mi Calm Calm - N/A   Overcast
11:53 AM 52.0 °F 50.0 °F 93% 29.66 in 9.0 mi NW 3.5 mph - N/A   Overcast
12:03 PM 53.1 °F 51.1 °F 93% 29.65 in 8.0 mi NNW 5.8 mph - N/A   Overcast
12:37 PM 54.0 °F 51.1 °F 90% 29.65 in 10.0 mi Variable 3.5 mph - N/A   Overcast
12:53 PM 55.0 °F 51.1 °F 86% 29.65 in 10.0 mi NW 3.5 mph - N/A   Overcast
1:53 PM 54.0 °F 51.1 °F 90% 29.64 in 10.0 mi NW 6.9 mph - N/A   Overcast
2:53 PM 54.0 °F 50.0 °F 86% 29.65 in 10.0 mi WNW 5.8 mph - N/A   Mostly Cloudy
3:53 PM 55.9 °F 52.0 °F 87% 29.67 in 10.0 mi West 6.9 mph - 0.01 in Rain Light Rain
4:53 PM 55.0 °F 51.1 °F 86% 29.67 in 10.0 mi WNW 4.6 mph - 0.00 in   Mostly Cloudy
5:53 PM 55.9 °F 51.1 °F 84% 29.68 in 10.0 mi West 6.9 mph - N/A   Overcast
6:53 PM 55.0 °F 51.1 °F 86% 29.69 in 10.0 mi NW 4.6 mph - N/A   Overcast
7:53 PM 55.9 °F 52.0 °F 87% 29.70 in 10.0 mi Calm Calm - N/A   Mostly Cloudy
8:09 PM 55.0 °F 52.0 °F 89% 29.70 in 10.0 mi Calm Calm - N/A   Mostly Cloudy
8:24 PM 54.0 °F 51.1 °F 90% 29.70 in 10.0 mi North 4.6 mph - N/A   Overcast
8:42 PM 52.0 °F 51.1 °F 97% 29.70 in 10.0 mi WNW 5.8 mph - N/A   Overcast
8:51 PM 51.8 °F 51.8 °F 100% 29.70 in 7.0 mi WNW 5.8 mph - N/A   Overcast
8:53 PM 52.0 °F 51.1 °F 97% 29.70 in 7.0 mi WNW 4.6 mph - N/A   Overcast
9:05 PM 52.0 °F 51.1 °F 97% 29.71 in 10.0 mi West 4.6 mph - N/A   Overcast
9:44 PM 53.1 °F 51.1 °F 93% 29.72 in 10.0 mi Calm Calm - N/A   Overcast
9:53 PM 53.1 °F 51.1 °F 93% 29.73 in 10.0 mi Calm Calm - N/A   Overcast
10:32 PM 53.1 °F 51.1 °F 93% 29.73 in 10.0 mi West 5.8 mph - N/A   Overcast
10:53 PM 53.1 °F 51.1 °F 93% 29.73 in 10.0 mi West 4.6 mph - N/A   Overcast
11:11 PM 54.0 °F 51.1 °F 90% 29.74 in 10.0 mi West 4.6 mph - N/A   Overcast
11:30 PM 53.1 °F 51.1 °F 93% 29.74 in 9.0 mi WNW 5.8 mph - N/A   Overcast
11:53 PM 53.1 °F 51.1 °F 93% 29.75 in 10.0 mi West 6.9 mph - 0.00 in Rain Light Rain